Wind_Speed
13 13 13 13 13 12 12 13 13 12 13 13 12 12 13 13 13 13 14 14 14 13 13 13 14 13 13 13 13 14 14 15 15 15 15 16 16 16 16 16 16 16 16
14 14 13 13 13 12 12 13 13 12 12 13 13 13 14 13 13 13 14 14 14 14 14 14 14 14 13 13 13 14 14 15 15 16 16 16 16 16 17 17 17 17 17
15 14 14 13 14 13 13 12 12 12 13 14 15 15 15 15 14 14 14 14 14 14 14 14 14 13 13 14 14 15 15 15 15 15 16 16 16 16 17 18 18 18 18
16 16 15 15 14 14 13 13 12 13 14 15 15 16 16 16 15 15 15 15 15 14 14 14 15 14 15 15 16 17 16 16 16 16 17 18 18 18 18 19 19 20 20
17 17 17 17 16 15 14 14 13 14 15 15 15 15 16 16 15 15 15 15 15 15 15 15 16 16 16 16 16 16 17 17 17 17 18 17 18 18 18 19 20 21 21
18 18 18 18 17 16 16 15 15 15 16 16 15 16 16 15 15 15 15 15 15 15 16 16 17 17 17 18 17 17 17 18 18 17 18 18 18 19 19 20 21 21 22
18 18 19 19 18 18 17 17 17 17 16 15 16 16 16 16 15 16 16 16 16 16 17 17 18 18 18 18 18 18 17 18 18 18 18 19 20 20 20 21 21 22 22
19 19 19 19 19 19 19 18 18 17 16 16 16 16 16 16 15 16 16 16 16 17 18 18 18 18 19 18 18 18 18 18 18 18 19 20 20 21 21 21 22 22 23
20 21 21 20 20 20 19 19 18 18 17 17 16 16 16 16 16 16 15 14 15 16 17 18 18 18 18 18 18 18 19 18 18 19 19 20 20 21 22 22 23 23 24
21 21 21 21 21 21 20 20 19 18 18 18 17 16 16 17 16 15 14 14 14 15 16 16 16 16 16 16 16 18 18 18 19 20 20 21 21 22 23 23 24 24 24
20 21 21 21 21 21 21 21 20 19 19 18 17 17 17 17 16 16 15 14 15 15 15 14 14 15 15 15 16 16 17 18 18 18 19 20 21 22 23 23 24 25 25
21 21 21 20 21 21 20 20 19 19 19 19 18 18 18 17 17 16 16 16 15 15 15 15 15 14 14 15 15 15 16 17 17 18 18 19 19 20 21 21 21 22 23
21 20 21 22 22 21 20 19 19 18 18 18 18 18 18 17 17 16 16 16 16 15 15 14 14 14 14 14 15 15 16 16 17 17 17 17 17 18 19 19 19 19 19
21 21 20 21 21 21 20 19 19 18 18 18 19 18 18 18 18 17 16 16 16 14 14 14 14 14 14 14 14 15 15 16 16 16 16 16 17 17 19 19 19 19 19
22 22 22 21 20 19 19 20 19 20 19 19 19 19 19 18 18 18 17 16 15 14 14 13 13 14 14 14 14 14 15 15 15 16 16 16 17 17 18 18 18 19 19
22 22 22 22 21 20 20 20 21 20 20 19 19 18 19 19 19 18 16 16 15 14 14 13 13 13 13 13 14 14 14 14 14 15 15 16 16 17 17 17 17 17 18
22 22 22 21 22 21 21 21 21 21 20 20 20 19 20 19 18 18 17 15 15 15 14 13 13 13 13 13 13 14 14 14 14 14 15 15 15 16 16 16 16 16 17
24 23 22 22 22 22 22 22 22 22 21 20 20 19 20 20 19 18 17 16 15 14 14 13 12 13 13 13 13 14 14 13 13 13 14 14 15 15 15 15 16 16 16
24 23 22 21 22 22 22 22 22 22 21 20 20 19 19 19 18 18 17 15 14 14 13 12 12 13 13 13 13 13 14 13 13 13 13 14 13 13 13 14 15 17 17
22 22 22 21 21 22 22 22 22 21 21 20 20 19 19 18 18 17 16 15 14 13 12 12 12 12 13 13 13 13 14 13 13 13 12 12 14 14 14 14 15 16 17
22 22 22 21 21 22 22 21 21 19 19 19 18 18 18 17 17 16 14 13 13 12 12 12 12 13 13 13 13 13 13 12 13 13 13 13 13 14 14 14 15 15 17
22 21 22 22 22 22 21 21 19 18 18 17 16 16 16 17 16 15 14 14 13 12 12 12 13 13 13 13 13 13 13 13 13 14 14 14 13 13 13 14 14 15 16
22 22 22 22 22 22 21 20 19 18 16 16 17 17 17 17 17 16 15 15 14 13 13 13 13 13 13 14 13 13 13 13 13 14 14 14 14 14 14 15 16 16 16
23 22 22 21 20 19 19 18 18 17 16 17 17 18 18 17 16 16 16 15 15 14 14 14 14 14 14 13 13 13 13 14 14 14 14 15 16 16 16 16 17 17 17
21 21 21 21 21 20 20 18 17 17 18 17 17 17 17 16 15 14 14 15 15 14 14 14 14 14 14 14 14 14 14 14 14 14 15 15 16 16 16 16 16 17 17
20 19 18 18 19 19 19 18 18 18 17 17 17 17 17 16 16 15 14 14 14 15 15 14 14 14 14 15 14 14 14 15 15 15 16 16 16 16 17 17 17 17 18
Wind_Direction
259 263 271 276 283 283 281 287 293 295 298 299 294 290 289 288 285 283 281 277 277 278 280 281 282 277 271 264 261 260 259 260 260 259 256 254 253 253 253 253 255 257 259
258 262 267 278 283 284 283 287 290 293 296 299 295 289 288 288 286 283 278 275 277 277 278 279 280 277 274 268 264 263 262 266 264 262 257 254 255 253 253 254 255 256 258
256 262 268 275 277 279 282 286 287 291 296 299 298 291 287 286 285 282 279 279 279 278 278 277 275 273 272 270 269 267 267 268 268 264 261 258 258 259 256 258 259 259 259
253 259 265 269 271 274 278 282 284 286 291 295 295 292 288 285 283 281 281 280 278 278 276 275 274 272 272 272 270 268 267 266 266 263 261 261 260 260 259 260 261 262 262
255 257 261 264 271 274 277 280 283 283 288 290 292 291 290 286 284 282 281 281 279 278 278 277 277 275 274 274 273 269 267 267 266 264 262 261 261 261 262 263 263 263 262
255 255 258 263 269 273 277 279 282 283 286 289 289 289 290 288 286 281 280 280 281 280 278 279 278 277 276 276 276 274 270 269 268 266 265 266 263 262 262 263 263 262 260
255 254 258 264 267 270 274 278 281 283 285 286 288 293 292 290 285 282 279 279 279 277 278 279 278 277 275 275 275 273 270 270 268 267 268 269 265 265 264 266 265 263 261
257 256 257 263 266 269 273 276 280 281 284 284 286 290 292 294 292 286 281 279 278 276 279 279 278 277 274 273 273 271 271 271 271 269 269 270 267 267 266 267 266 265 264
258 258 261 265 266 269 272 273 277 279 281 281 283 285 289 294 298 292 283 280 279 278 282 279 278 276 273 273 272 271 271 271 271 272 272 272 269 268 267 267 267 266 265
262 261 262 269 266 267 268 272 274 275 276 278 281 284 288 293 298 299 289 282 282 281 282 280 279 276 275 275 272 274 274 272 272 274 272 272 270 270 268 267 267 266 265
263 261 264 266 266 266 268 271 271 274 276 278 280 284 287 289 291 295 291 282 283 284 283 282 281 279 276 275 275 275 276 276 275 277 275 273 271 270 269 268 266 266 265
264 263 263 264 265 267 267 268 270 275 276 277 279 280 284 286 288 289 291 288 282 281 280 278 278 279 278 278 277 277 279 281 279 279 278 275 274 271 270 271 270 268 266
265 265 265 265 265 267 266 266 268 273 274 275 278 279 278 280 285 287 288 289 284 280 278 276 276 276 277 279 279 281 284 284 283 284 283 279 278 275 274 275 274 271 269
265 265 264 268 265 263 263 263 266 270 274 275 275 278 276 275 280 281 283 284 281 279 275 273 272 273 275 277 280 282 284 286 286 286 283 280 280 279 277 275 272 271 270
266 266 267 270 264 261 261 262 264 268 272 274 276 276 276 276 277 277 277 279 278 277 273 270 271 274 275 276 278 279 282 286 288 287 284 281 281 282 280 276 273 272 273
266 266 270 269 261 260 262 263 263 269 270 271 275 276 275 279 277 274 271 274 275 275 274 272 272 273 274 275 276 278 284 288 290 289 286 283 282 283 281 280 278 276 275
263 265 265 263 261 261 262 264 267 269 268 268 271 273 276 279 276 270 269 268 272 275 274 270 271 273 274 277 278 278 285 291 294 293 293 289 285 284 283 281 279 277 277
262 264 261 260 260 260 261 263 266 267 267 266 268 270 271 273 273 269 264 266 268 271 273 271 273 274 274 275 278 281 285 288 292 298 300 296 293 289 283 280 279 279 280
260 259 258 259 259 260 260 262 263 266 267 266 266 266 268 270 267 265 262 264 265 265 268 270 272 275 277 279 280 284 290 291 292 296 301 302 300 296 291 285 281 281 283
259 258 257 259 259 259 260 263 263 265 267 266 264 263 265 266 263 260 258 258 260 262 263 265 269 271 275 279 282 285 289 292 295 296 297 301 305 305 301 294 289 285 285
258 258 258 258 259 258 261 263 262 265 265 263 261 261 262 260 259 256 254 254 256 260 262 265 268 272 275 280 283 286 290 291 292 293 296 301 304 303 302 298 293 290 290
257 259 260 259 258 258 260 263 263 264 264 263 260 258 257 255 254 252 253 253 254 258 258 263 268 272 273 277 282 285 287 287 290 293 295 297 300 300 301 301 298 296 296
257 259 262 262 260 257 259 264 262 261 262 259 260 260 257 253 250 249 250 250 251 255 259 262 264 269 275 279 281 282 284 287 291 293 294 296 299 299 299 300 301 301 299
261 262 262 262 259 256 258 260 258 258 257 258 260 261 258 253 248 246 246 247 249 256 259 261 264 268 273 279 281 282 284 287 289 291 292 295 297 300 301 302 302 301 299
260 260 260 259 256 256 256 254 255 257 258 258 258 258 257 252 250 248 248 250 252 256 256 259 264 269 273 277 279 281 283 286 286 289 293 296 298 300 300 302 304 303 301
257 254 254 256 254 252 250 252 254 256 256 256 256 254 252 253 252 251 251 250 250 253 255 259 262 266 271 273 277 281 281 282 284 289 292 294 296 297 299 302 304 304 303
Height
5849 5850 5851 5851 5850 5850 5849 5849 5848 5847 5846 5845 5844 5843 5842 5841 5841 5840 5840 5839 5839 5838 5838 5838 5837 5837 5836 5837 5837 5837 5837 5837 5837 5838 5838 5839 5840 5841 5842 5843 5844 5845 5846
5845 5847 5847 5847 5847 5847 5846 5846 5845 5844 5843 5842 5841 5840 5839 5838 5838 5837 5836 5836 5835 5835 5834 5834 5833 5833 5833 5833 5833 5833 5833 5833 5833 5833 5834 5835 5836 5837 5838 5839 5840 5841 5841
5842 5843 5843 5844 5843 5843 5843 5843 5842 5842 5841 5839 5838 5837 5836 5835 5834 5833 5833 5832 5831 5831 5830 5830 5830 5829 5829 5829 5829 5829 5829 5829 5829 5829 5830 5831 5832 5833 5834 5834 5835 5836 5837
5838 5839 5840 5840 5840 5840 5840 5840 5839 5838 5837 5836 5835 5834 5833 5832 5830 5830 5829 5828 5827 5827 5826 5826 5826 5826 5825 5825 5825 5825 5825 5825 5825 5825 5825 5826 5827 5828 5829 5829 5830 5831 5832
5833 5834 5835 5836 5836 5837 5837 5836 5836 5835 5834 5833 5832 5830 5829 5828 5826 5825 5825 5824 5823 5823 5822 5822 5821 5821 5821 5820 5820 5820 5820 5820 5820 5820 5820 5821 5821 5822 5823 5824 5824 5825 5826
5828 5829 5830 5831 5832 5833 5832 5832 5832 5831 5830 5829 5828 5827 5825 5824 5822 5822 5821 5820 5819 5818 5817 5817 5816 5816 5815 5815 5814 5814 5814 5814 5814 5815 5815 5815 5816 5817 5817 5818 5818 5819 5820
5823 5824 5826 5827 5828 5828 5828 5828 5828 5827 5826 5825 5824 5823 5821 5820 5819 5818 5817 5815 5814 5813 5813 5812 5811 5810 5810 5809 5809 5809 5809 5809 5809 5809 5810 5810 5811 5811 5812 5812 5813 5813 5814
5819 5820 5821 5822 5823 5823 5823 5823 5823 5823 5822 5821 5820 5819 5818 5816 5815 5813 5812 5810 5809 5808 5808 5806 5805 5804 5804 5803 5803 5803 5803 5803 5803 5804 5804 5804 5805 5805 5805 5806 5807 5807 5808
5814 5815 5816 5817 5818 5818 5819 5819 5818 5818 5817 5816 5815 5815 5814 5812 5810 5808 5807 5806 5805 5804 5803 5801 5800 5799 5798 5798 5798 5798 5798 5798 5798 5798 5798 5798 5798 5799 5799 5799 5800 5801 5802
5809 5810 5811 5811 5812 5813 5813 5813 5813 5813 5812 5812 5811 5810 5809 5807 5806 5804 5803 5802 5800 5799 5798 5797 5795 5795 5794 5793 5793 5793 5792 5792 5792 5792 5792 5792 5792 5792 5792 5792 5793 5794 5795
5804 5804 5806 5806 5807 5807 5807 5807 5807 5808 5807 5807 5806 5805 5804 5803 5801 5800 5798 5797 5796 5795 5794 5792 5791 5790 5790 5789 5789 5788 5788 5788 5787 5786 5786 5785 5785 5785 5785 5786 5786 5787 5788
5799 5799 5800 5801 5801 5801 5802 5802 5802 5802 5802 5801 5801 5800 5799 5798 5797 5796 5794 5793 5792 5790 5789 5788 5787 5786 5786 5785 5784 5784 5783 5782 5781 5780 5780 5779 5779 5779 5779 5779 5779 5780 5780
5794 5794 5795 5796 5796 5796 5796 5796 5796 5796 5796 5796 5796 5795 5794 5793 5792 5791 5790 5788 5787 5786 5785 5784 5783 5782 5781 5781 5780 5779 5779 5778 5777 5775 5775 5774 5774 5774 5774 5774 5774 5774 5774
5788 5788 5789 5790 5790 5790 5791 5791 5791 5791 5791 5791 5790 5789 5788 5788 5787 5786 5785 5783 5782 5781 5780 5779 5779 5778 5777 5776 5776 5775 5774 5773 5772 5771 5770 5769 5769 5768 5768 5769 5769 5769 5769
5782 5782 5783 5783 5784 5784 5785 5785 5785 5786 5786 5785 5785 5784 5783 5782 5782 5781 5780 5779 5777 5776 5775 5775 5774 5774 5773 5772 5771 5771 5770 5769 5768 5766 5765 5764 5764 5764 5763 5763 5763 5764 5764
5776 5776 5776 5777 5777 5778 5779 5779 5780 5780 5780 5780 5779 5778 5777 5777 5776 5775 5775 5774 5773 5772 5771 5771 5770 5769 5769 5768 5767 5767 5766 5765 5764 5762 5761 5760 5759 5759 5758 5758 5758 5758 5759
5770 5770 5770 5771 5771 5772 5772 5773 5773 5774 5774 5774 5773 5773 5772 5771 5770 5770 5769 5769 5768 5767 5767 5767 5766 5766 5765 5764 5764 5763 5762 5761 5760 5758 5757 5755 5754 5753 5753 5753 5753 5753 5753
5763 5764 5764 5765 5765 5765 5766 5766 5767 5767 5767 5767 5767 5767 5766 5765 5765 5764 5764 5764 5764 5763 5763 5762 5762 5762 5761 5760 5760 5759 5758 5757 5756 5754 5753 5751 5750 5749 5749 5749 5749 5748 5748
5756 5758 5758 5758 5759 5759 5760 5760 5760 5761 5761 5761 5761 5761 5760 5760 5759 5759 5759 5759 5759 5759 5759 5759 5758 5758 5757 5757 5756 5756 5755 5754 5752 5751 5750 5748 5747 5745 5745 5744 5744 5744 5744
5750 5751 5752 5752 5752 5753 5753 5754 5754 5754 5754 5754 5754 5754 5754 5754 5754 5754 5754 5754 5754 5755 5755 5755 5755 5755 5754 5754 5753 5752 5752 5751 5749 5748 5747 5746 5744 5743 5742 5741 5740 5740 5740
5744 5745 5745 5746 5746 5747 5747 5748 5748 5748 5748 5748 5748 5748 5748 5748 5749 5749 5749 5749 5750 5750 5751 5751 5751 5751 5751 5751 5750 5749 5749 5747 5746 5746 5745 5743 5742 5740 5739 5738 5737 5736 5736
5737 5738 5739 5739 5740 5741 5741 5742 5742 5742 5742 5742 5742 5742 5742 5743 5743 5744 5744 5745 5746 5746 5747 5748 5748 5748 5748 5748 5747 5746 5745 5744 5744 5743 5742 5740 5739 5737 5736 5735 5734 5732 5731
5731 5731 5732 5733 5733 5733 5734 5735 5736 5736 5736 5737 5737 5736 5736 5737 5737 5738 5739 5740 5741 5742 5743 5744 5744 5744 5744 5744 5743 5742 5742 5741 5740 5740 5739 5737 5736 5734 5733 5731 5730 5729 5727
5724 5725 5725 5726 5726 5727 5728 5729 5730 5731 5731 5731 5731 5731 5731 5731 5731 5732 5733 5735 5736 5738 5739 5739 5740 5740 5740 5740 5739 5739 5738 5738 5737 5736 5735 5734 5732 5731 5729 5728 5726 5725 5723
5717 5717 5718 5719 5720 5720 5722 5723 5724 5724 5725 5725 5725 5725 5725 5726 5726 5728 5729 5730 5732 5733 5734 5735 5735 5736 5736 5736 5736 5735 5735 5734 5734 5732 5731 5730 5728 5727 5725 5724 5722 5721 5719
5710 5711 5712 5712 5713 5714 5716 5717 5718 5719 5719 5719 5720 5720 5720 5721 5722 5723 5724 5725 5726 5728 5729 5730 5731 5731 5731 5731 5731 5731 5730 5730 5730 5729 5727 5726 5724 5723 5721 5720 5718 5716 5714